1 Minute Report
Date Time Wind Direction Wind Speed Wind Gust Wind Variable Altimeter Temperature Dewpoint Relative Humidity Visibility Ceiling Precip Present Weather Density Alt Wind Chill Heat Index
17/06/27 19:15 170 03 N/A N/A 29.89 72(F), 22(C) 55(F), 13(C) 57% 10 BKN060 BKN070 BKN095 N/A N/A N/A N/A 76 F 10530
17/06/27 19:14 000 00 N/A N/A 29.89 72(F), 22(C) 55(F), 13(C) 57% 10 BKN060 BKN070 BKN095 N/A N/A N/A N/A 76 F 10529
17/06/27 19:13 000 00 N/A N/A 29.89 72(F), 22(C) 55(F), 13(C) 57% 10 BKN060 BKN070 BKN095 N/A N/A N/A N/A 76 F 10528
17/06/27 19:12 000 00 N/A N/A 29.89 72(F), 22(C) 55(F), 13(C) 57% 10 BKN060 BKN070 BKN095 N/A N/A N/A N/A 76 F 10527
17/06/27 19:11 160 03 N/A N/A 29.90 72(F), 22(C) 56(F), 13(C) 57% 10 BKN060 BKN070 BKN095 N/A N/A N/A N/A 76 F 10526
17/06/27 19:10 200 05 15 N/A 29.90 72(F), 22(C) 56(F), 13(C) 57% 10 BKN060 BKN070 BKN095 N/A N/A N/A N/A 76 F 10525
17/06/27 19:09 220 05 15 N/A 29.90 72(F), 22(C) 56(F), 13(C) 57% 10 BKN060 BKN070 BKN095 N/A N/A N/A N/A 76 F 10524
17/06/27 19:08 260 03 15 N/A 29.90 72(F), 22(C) 57(F), 14(C) 61% 10 BKN060 BKN070 BKN095 N/A N/A N/A N/A 76 F 10523
17/06/27 19:07 330 05 15 N/A 29.90 72(F), 22(C) 57(F), 14(C) 61% 10 BKN060 BKN070 BKN095 N/A N/A N/A N/A 76 F 10522
17/06/27 19:06 350 07 15 300V020 29.90 73(F), 23(C) 57(F), 14(C) 57% 10 BKN060 BKN070 BKN095 N/A N/A 1200 N/A 77 F 10521
17/06/27 19:05 360 09 15 N/A 29.90 75(F), 24(C) 57(F), 14(C) 54% 10 BKN060 BKN070 BKN095 N/A N/A 1300 N/A 78 F 10520
17/06/27 19:04 360 10 15 N/A 29.90 75(F), 24(C) 57(F), 14(C) 54% 10 BKN060 BKN070 BKN095 N/A N/A 1300 N/A 78 F 10519
17/06/27 19:03 360 09 15 N/A 29.90 75(F), 24(C) 56(F), 13(C) 50% 10 BKN060 BKN095 N/A N/A 1300 N/A 78 F 10518
17/06/27 19:02 350 09 15 N/A 29.90 76(F), 24(C) 55(F), 13(C) 50% 10 BKN060 BKN095 N/A N/A 1400 N/A 78 F 10517
17/06/27 19:01 350 11 15 N/A 29.90 76(F), 24(C) 54(F), 12(C) 47% 10 BKN060 BKN095 N/A N/A 1400 N/A 78 F 10516
17/06/27 19:00 010 10 15 000V200 29.90 77(F), 25(C) 52(F), 11(C) 41% 10 BKN060 BKN070 BKN095 N/A N/A 1500 N/A 78 F 10515
17/06/27 18:59 110 07 15 000V200 29.90 77(F), 25(C) 52(F), 11(C) 41% 10 BKN060 BKN095 N/A N/A 1500 N/A 78 F 10514
17/06/27 18:58 180 06 15 N/A 29.90 77(F), 25(C) 52(F), 11(C) 41% 10 BKN060 BKN095 N/A N/A 1500 N/A 78 F 10513
17/06/27 18:57 200 07 15 160V260 29.90 77(F), 25(C) 52(F), 11(C) 41% 10 BKN060 BKN095 N/A N/A 1500 N/A 78 F 10512
17/06/27 18:56 220 08 15 200V260 29.90 77(F), 25(C) 52(F), 11(C) 41% 10 BKN060 BKN095 N/A N/A 1500 N/A 78 F 10511
17/06/27 18:55 220 10 17 N/A 29.90 77(F), 25(C) 51(F), 11(C) 41% 10 BKN060 BKN095 N/A N/A 1500 N/A 78 F 10510
17/06/27 18:54 220 10 17 190V260 29.90 77(F), 25(C) 51(F), 11(C) 41% 10 BKN060 BKN095 N/A N/A 1500 N/A 78 F 10509
17/06/27 18:53 220 09 17 190V260 29.90 77(F), 25(C) 51(F), 11(C) 41% 10 BKN060 BKN095 N/A N/A 1500 N/A 78 F 10508
17/06/27 18:52 220 08 17 N/A 29.90 77(F), 25(C) 51(F), 11(C) 41% 10 BKN060 BKN095 N/A N/A 1500 N/A 78 F 10507
17/06/27 18:51 220 09 17 N/A 29.90 77(F), 25(C) 51(F), 11(C) 41% 10 BKN060 BKN095 N/A N/A 1500 N/A 78 F 10506
17/06/27 18:50 210 11 17 N/A 29.90 77(F), 25(C) 51(F), 11(C) 41% 10 BKN060 BKN095 N/A N/A 1500 N/A 78 F 10505
17/06/27 18:49 190 12 17 N/A 29.90 77(F), 25(C) 51(F), 11(C) 41% 10 BKN060 BKN095 N/A N/A 1500 N/A 78 F 10504
17/06/27 18:48 200 13 17 N/A 29.90 77(F), 25(C) 51(F), 11(C) 41% 10 BKN060 BKN095 N/A N/A 1500 N/A 78 F 10503
17/06/27 18:47 200 14 17 N/A 29.90 77(F), 25(C) 51(F), 11(C) 41% 10 BKN060 BKN095 N/A N/A 1500 N/A 78 F 10502
17/06/27 18:46 210 13 17 N/A 29.90 77(F), 25(C) 51(F), 11(C) 41% 10 BKN060 BKN095 N/A N/A 1500 N/A 78 F 10501
17/06/27 18:45 210 13 17 N/A 29.90 76(F), 24(C) 51(F), 11(C) 44% 10 BKN060 BKN095 N/A N/A 1400 N/A 78 F 10500
17/06/27 18:44 200 14 17 N/A 29.90 76(F), 24(C) 51(F), 11(C) 44% 10 BKN060 BKN095 N/A N/A 1400 N/A 78 F 10499
17/06/27 18:43 190 15 N/A N/A 29.90 76(F), 24(C) 51(F), 11(C) 44% 10 BKN060 BKN095 N/A N/A 1400 N/A 78 F 10498
17/06/27 18:42 190 14 17 N/A 29.90 76(F), 24(C) 51(F), 11(C) 44% 10 BKN060 OVC095 N/A N/A 1400 N/A 78 F 10497
17/06/27 18:41 190 14 17 N/A 29.90 76(F), 24(C) 51(F), 11(C) 44% 10 BKN060 BKN095 N/A N/A 1400 N/A 78 F 10496
17/06/27 18:40 190 14 17 N/A 29.90 76(F), 24(C) 53(F), 12(C) 47% 10 BKN060 BKN095 N/A N/A 1400 N/A 78 F 10495
17/06/27 18:39 190 12 N/A N/A 29.90 76(F), 24(C) 53(F), 12(C) 47% 10 BKN060 BKN095 N/A N/A 1400 N/A 78 F 10494
17/06/27 18:38 190 11 14 N/A 29.90 75(F), 24(C) 53(F), 12(C) 47% 10 BKN060 BKN095 N/A N/A 1300 N/A 78 F 10493
17/06/27 18:37 190 11 14 N/A 29.90 75(F), 24(C) 54(F), 12(C) 47% 10 BKN060 BKN095 N/A N/A 1300 N/A 78 F 10492
17/06/27 18:36 180 10 14 N/A 29.91 74(F), 23(C) 55(F), 13(C) 53% 10 BKN060 BKN095 N/A N/A 1300 N/A 77 F 10491
17/06/27 18:35 170 08 N/A N/A 29.91 74(F), 23(C) 56(F), 13(C) 53% 10 BKN060 BKN095 N/A N/A 1300 N/A 77 F 10490
17/06/27 18:34 170 07 N/A N/A 29.91 74(F), 23(C) 56(F), 13(C) 53% 10 BKN060 BKN095 N/A N/A 1300 N/A 77 F 10489
17/06/27 18:33 180 05 N/A N/A 29.91 73(F), 23(C) 57(F), 14(C) 57% 10 SCT060 BKN070 BKN095 N/A N/A 1200 N/A 77 F 10488
17/06/27 18:32 200 03 N/A N/A 29.91 73(F), 23(C) 57(F), 14(C) 57% 10 SCT060 BKN070 BKN095 N/A N/A 1200 N/A 77 F 10487
17/06/27 18:31 220 03 N/A N/A 29.91 73(F), 23(C) 57(F), 14(C) 57% 10 BKN060 BKN070 BKN095 N/A N/A 1200 N/A 77 F 10486
17/06/27 18:30 000 00 N/A N/A 29.91 73(F), 23(C) 57(F), 14(C) 57% 10 BKN060 BKN070 BKN095 N/A N/A 1200 N/A 77 F 10485
17/06/27 18:29 000 00 N/A N/A 29.91 73(F), 23(C) 57(F), 14(C) 57% 10 BKN060 BKN070 BKN095 N/A N/A 1200 N/A 77 F 10484
17/06/27 18:28 000 00 N/A N/A 29.91 73(F), 23(C) 57(F), 14(C) 57% 10 BKN060 BKN070 BKN095 N/A N/A 1200 N/A 77 F 10483
17/06/27 18:27 000 00 N/A N/A 29.91 73(F), 23(C) 57(F), 14(C) 57% 10 BKN060 BKN070 BKN095 N/A N/A 1200 N/A 77 F 10482
17/06/27 18:26 060 03 N/A N/A 29.91 73(F), 23(C) 56(F), 13(C) 53% 10 SCT060 BKN070 BKN095 N/A N/A 1200 N/A 77 F 10481
17/06/27 18:25 040 03 N/A N/A 29.91 73(F), 23(C) 56(F), 13(C) 53% 10 SCT050 SCT070 BKN095 N/A N/A 1200 N/A 77 F 10480
17/06/27 18:24 020 04 N/A N/A 29.91 73(F), 23(C) 56(F), 13(C) 53% 10 SCT050 SCT070 BKN095 N/A N/A 1200 N/A 77 F 10479
17/06/27 18:23 360 04 N/A N/A 29.91 73(F), 23(C) 57(F), 14(C) 57% 10 SCT050 SCT070 BKN095 N/A N/A 1200 N/A 77 F 10478
17/06/27 18:22 010 05 N/A N/A 29.91 73(F), 23(C) 57(F), 14(C) 57% 10 SCT050 SCT070 BKN095 N/A N/A 1200 N/A 77 F 10477
17/06/27 18:21 010 04 N/A N/A 29.91 73(F), 23(C) 57(F), 14(C) 57% 10 SCT050 SCT070 BKN095 N/A N/A 1200 N/A 77 F 10476
17/06/27 18:20 010 03 N/A N/A 29.91 73(F), 23(C) 58(F), 14(C) 57% 10 SCT050 SCT070 BKN095 N/A N/A 1200 N/A 77 F 10475
17/06/27 18:19 020 03 N/A N/A 29.91 73(F), 23(C) 58(F), 14(C) 57% 10 SCT050 SCT070 BKN095 N/A N/A 1200 N/A 77 F 10474
17/06/27 18:18 020 03 N/A N/A 29.91 72(F), 22(C) 57(F), 14(C) 61% 10 SCT050 SCT070 BKN095 N/A N/A N/A N/A 76 F 10473
17/06/27 18:17 000 00 N/A N/A 29.91 72(F), 22(C) 57(F), 14(C) 61% 10 SCT050 SCT070 BKN095 N/A N/A N/A N/A 76 F 10472
17/06/27 18:16 000 00 N/A N/A 29.91 72(F), 22(C) 57(F), 14(C) 61% 10 SCT050 SCT070 BKN095 N/A N/A N/A N/A 76 F 10471
17/06/27 18:15 000 00 N/A N/A 29.91 71(F), 22(C) 57(F), 14(C) 61% 10 SCT050 SCT070 BKN095 N/A N/A N/A N/A 76 F 10470
17/06/27 18:14 000 00 N/A N/A 29.91 71(F), 22(C) 57(F), 14(C) 61% 10 SCT050 SCT070 BKN095 N/A N/A N/A N/A 76 F 10469
17/06/27 18:13 000 00 N/A N/A 29.92 71(F), 22(C) 56(F), 13(C) 57% 10 SCT050 SCT070 BKN095 N/A N/A N/A N/A 76 F 10468
17/06/27 18:12 000 00 N/A N/A 29.92 71(F), 22(C) 56(F), 13(C) 57% 10 SCT050 SCT060 BKN095 N/A N/A N/A N/A 76 F 10467
17/06/27 18:11 000 00 N/A N/A 29.92 71(F), 22(C) 56(F), 13(C) 57% 10 SCT050 SCT060 BKN095 N/A N/A N/A N/A 76 F 10466
17/06/27 18:10 000 00 N/A N/A 29.91 71(F), 22(C) 56(F), 13(C) 57% 10 SCT060 SCT070 BKN095 N/A N/A N/A N/A 76 F 10465
17/06/27 18:09 310 03 N/A N/A 29.91 71(F), 22(C) 56(F), 13(C) 57% 10 SCT060 SCT070 BKN095 N/A N/A N/A N/A 76 F 10464
17/06/27 18:08 310 04 N/A N/A 29.91 71(F), 22(C) 56(F), 13(C) 57% 10 SCT050 SCT070 BKN095 N/A N/A N/A N/A 76 F 10463
17/06/27 18:07 320 03 N/A N/A 29.91 71(F), 22(C) 56(F), 13(C) 57% 10 SCT050 SCT070 BKN095 N/A N/A N/A N/A 76 F 10462
17/06/27 18:06 000 00 N/A N/A 29.91 71(F), 22(C) 56(F), 13(C) 57% 10 SCT050 SCT070 BKN095 N/A N/A N/A N/A 76 F 10461
17/06/27 18:05 000 00 N/A N/A 29.92 71(F), 22(C) 56(F), 13(C) 57% 10 SCT050 SCT070 BKN095 N/A N/A N/A N/A 76 F 10460
17/06/27 18:04 000 00 N/A N/A 29.92 71(F), 22(C) 57(F), 14(C) 61% 10 SCT050 SCT070 BKN095 N/A N/A N/A N/A 76 F 10459
17/06/27 18:03 000 00 N/A N/A 29.92 71(F), 22(C) 57(F), 14(C) 61% 10 SCT050 SCT070 BKN095 N/A N/A N/A N/A 76 F 10458
17/06/27 18:02 340 03 N/A N/A 29.92 71(F), 22(C) 57(F), 14(C) 61% 10 SCT050 SCT070 BKN095 N/A N/A N/A N/A 76 F 10457
17/06/27 18:01 330 03 N/A N/A 29.92 71(F), 22(C) 58(F), 14(C) 61% 10 SCT050 SCT070 BKN095 N/A N/A N/A N/A 76 F 10456
17/06/27 18:00 320 03 N/A N/A 29.92 71(F), 22(C) 58(F), 14(C) 61% 10 SCT050 SCT080 BKN095 N/A N/A N/A N/A 76 F 10455
17/06/27 17:59 330 03 N/A N/A 29.92 71(F), 22(C) 58(F), 14(C) 61% 10 SCT050 SCT080 BKN095 N/A N/A N/A N/A 76 F 10454
17/06/27 17:58 320 04 N/A N/A 29.92 71(F), 22(C) 58(F), 14(C) 61% 10 SCT050 SCT080 BKN095 N/A N/A N/A N/A 76 F 10453
17/06/27 17:57 300 04 N/A N/A 29.92 71(F), 22(C) 58(F), 14(C) 61% 10 SCT029 SCT050 BKN095 N/A N/A N/A N/A 76 F 10452
17/06/27 17:56 310 04 N/A N/A 29.92 70(F), 21(C) 58(F), 14(C) 64% 10 SCT029 SCT050 BKN095 N/A N/A N/A 70 F N/A 10451
17/06/27 17:55 310 03 N/A N/A 29.93 70(F), 21(C) 57(F), 14(C) 64% 10 SCT029 SCT050 OVC095 N/A N/A N/A 70 F N/A 10450
17/06/27 17:54 300 03 N/A N/A 29.93 70(F), 21(C) 57(F), 14(C) 64% 10 SCT029 SCT050 OVC095 N/A N/A N/A 70 F N/A 10449
17/06/27 17:53 290 04 N/A N/A 29.93 70(F), 21(C) 57(F), 14(C) 64% 10 SCT029 BKN075 OVC095 N/A N/A N/A 70 F N/A 10448
17/06/27 17:52 300 05 N/A N/A 29.93 70(F), 21(C) 57(F), 14(C) 64% 10 SCT029 SCT050 BKN075 N/A Light Rain N/A 72 F N/A 10447
17/06/27 17:51 290 05 N/A N/A 29.93 70(F), 21(C) 57(F), 14(C) 64% 10 SCT029 SCT050 BKN075 N/A Light Rain N/A 72 F N/A 10446
17/06/27 17:50 290 05 N/A N/A 29.93 70(F), 21(C) 58(F), 14(C) 64% 10 SCT027 SCT050 BKN075 N/A Light Rain N/A 72 F N/A 10445
17/06/27 17:49 290 06 N/A N/A 29.93 70(F), 21(C) 58(F), 14(C) 64% 10 SCT027 SCT050 BKN075 N/A Light Rain N/A 71 F N/A 10444
17/06/27 17:48 300 06 N/A N/A 29.93 71(F), 22(C) 57(F), 14(C) 61% 10 SCT027 SCT050 BKN075 N/A Light Rain N/A N/A 76 F 10443
17/06/27 17:47 300 05 N/A N/A 29.93 71(F), 22(C) 57(F), 14(C) 61% 10 SCT027 SCT050 BKN075 N/A Light Rain N/A N/A 76 F 10442
17/06/27 17:46 310 05 N/A N/A 29.93 71(F), 22(C) 57(F), 14(C) 61% 10 SCT027 SCT050 BKN090 N/A Light Rain N/A N/A 76 F 10441
17/06/27 17:45 310 04 N/A N/A 29.93 71(F), 22(C) 56(F), 13(C) 57% 10 SCT027 SCT075 BKN090 N/A Light Rain N/A N/A 76 F 10440
17/06/27 17:44 310 04 N/A N/A 29.93 71(F), 22(C) 56(F), 13(C) 57% 10 SCT027 SCT075 BKN090 N/A Light Rain N/A N/A 76 F 10439
17/06/27 17:43 310 03 N/A N/A 29.93 71(F), 22(C) 56(F), 13(C) 57% 10 SCT027 SCT075 BKN090 N/A Light Rain N/A N/A 76 F 10438
17/06/27 17:42 300 03 N/A N/A 29.93 71(F), 22(C) 56(F), 13(C) 57% 10 SCT027 SCT075 BKN090 N/A Light Rain N/A N/A 76 F 10437
17/06/27 17:41 290 03 N/A N/A 29.93 71(F), 22(C) 56(F), 13(C) 57% 10 SCT027 SCT075 BKN090 N/A Light Rain N/A N/A 76 F 10436
17/06/27 17:40 280 03 N/A N/A 29.93 71(F), 22(C) 55(F), 13(C) 57% 10 SCT075 BKN100 BKN110 N/A Light Rain N/A N/A 76 F 10435
17/06/27 17:39 270 03 N/A N/A 29.93 71(F), 22(C) 55(F), 13(C) 57% 10 SCT075 BKN100 BKN110 N/A Light Rain N/A N/A 76 F 10434
17/06/27 17:38 250 03 N/A N/A 29.93 71(F), 22(C) 55(F), 13(C) 57% 10 SCT075 BKN100 BKN110 N/A Light Rain N/A N/A 76 F 10433
17/06/27 17:37 240 03 N/A N/A 29.93 71(F), 22(C) 55(F), 13(C) 57% 10 SCT075 BKN100 BKN110 N/A Light Rain N/A N/A 76 F 10432
17/06/27 17:36 240 03 N/A N/A 29.93 72(F), 22(C) 55(F), 13(C) 57% 10 SCT075 BKN100 BKN110 N/A Light Rain N/A N/A 76 F 10431
17/06/27 17:35 230 04 N/A N/A 29.93 72(F), 22(C) 55(F), 13(C) 57% 10 SCT075 BKN100 BKN110 N/A Light Rain N/A N/A 76 F 10430
17/06/27 17:34 220 05 N/A N/A 29.93 72(F), 22(C) 55(F), 13(C) 57% 10 SCT075 BKN100 BKN110 N/A Light Rain N/A N/A 76 F 10429
17/06/27 17:33 210 05 N/A N/A 29.93 72(F), 22(C) 55(F), 13(C) 57% 10 BKN100 BKN110 N/A Light Rain N/A N/A 76 F 10428
17/06/27 17:32 210 05 N/A N/A 29.93 72(F), 22(C) 55(F), 13(C) 57% 10 BKN100 N/A Light Rain N/A N/A 76 F 10427
17/06/27 17:31 220 06 N/A N/A 29.93 72(F), 22(C) 54(F), 12(C) 53% 10 BKN100 N/A Light Rain N/A N/A 77 F 10426
17/06/27 17:30 220 06 N/A N/A 29.93 72(F), 22(C) 54(F), 12(C) 53% 10 SCT100 N/A N/A N/A N/A 77 F 10425
17/06/27 17:29 220 06 N/A N/A 29.93 72(F), 22(C) 54(F), 12(C) 53% 10 SCT100 N/A N/A N/A N/A 77 F 10424
17/06/27 17:28 220 06 N/A N/A 29.94 72(F), 22(C) 54(F), 12(C) 53% 10 SCT100 N/A N/A N/A N/A 77 F 10423
17/06/27 17:27 210 06 N/A N/A 29.94 72(F), 22(C) 54(F), 12(C) 53% 10 SCT100 N/A N/A N/A N/A 77 F 10422
17/06/27 17:26 210 06 N/A N/A 29.94 72(F), 22(C) 54(F), 12(C) 53% 10 SCT100 N/A N/A N/A N/A 77 F 10421
17/06/27 17:25 220 07 N/A N/A 29.94 73(F), 23(C) 54(F), 12(C) 50% 10 SCT110 N/A N/A N/A N/A 77 F 10420
17/06/27 17:24 220 07 N/A N/A 29.94 73(F), 23(C) 54(F), 12(C) 50% 10 SCT110 N/A N/A N/A N/A 77 F 10419
17/06/27 17:23 210 07 N/A N/A 29.94 73(F), 23(C) 54(F), 12(C) 50% 10 SCT110 N/A N/A N/A N/A 77 F 10418
17/06/27 17:22 200 07 N/A N/A 29.94 73(F), 23(C) 54(F), 12(C) 50% 10 BKN100 N/A N/A N/A N/A 77 F 10417
17/06/27 17:21 200 07 N/A N/A 29.94 73(F), 23(C) 54(F), 12(C) 50% 10 BKN100 N/A N/A N/A N/A 77 F 10416
17/06/27 17:20 210 06 N/A N/A 29.94 73(F), 23(C) 54(F), 12(C) 50% 10 BKN100 N/A N/A N/A N/A 77 F 10415
17/06/27 17:19 210 06 N/A N/A 29.94 74(F), 23(C) 54(F), 12(C) 50% 10 BKN110 N/A N/A 1200 N/A 77 F 10414
17/06/27 17:18 210 06 N/A N/A 29.94 74(F), 23(C) 54(F), 12(C) 50% 10 BKN110 N/A N/A 1200 N/A 77 F 10413
17/06/27 17:17 210 05 N/A N/A 29.94 74(F), 23(C) 55(F), 13(C) 53% 10 BKN095 N/A N/A 1200 N/A 77 F 10412
17/06/27 17:16 210 05 N/A N/A 29.94 74(F), 23(C) 55(F), 13(C) 53% 10 BKN095 N/A N/A 1200 N/A 77 F 10411
17/06/27 17:15 200 07 N/A N/A 29.94 74(F), 23(C) 55(F), 13(C) 53% 10 BKN095 N/A N/A 1200 N/A 77 F 10410